Lid_Strength_Index
4 6 7 6 5 6 6 7 7 6 5 6 7 7 7 5 5 5 4 4 4 3 2 2 1 1 1 0 1 0 0 0 -0 0 1 1 1 0 -1 -1 -2 -2 -2 -2
5 7 5 5 5 6 6 7 7 6 5 5 7 8 6 6 5 5 5 4 4 3 3 2 2 1 1 1 1 1 0 0 0 0 0 -0 -0 0 -0 -1 -1 -2 -2 -2
6 6 5 5 6 6 6 7 7 7 6 5 6 9 8 6 5 5 4 4 3 3 3 3 2 2 2 1 1 1 0 0 -0 -0 -0 -0 -0 -0 0 0 -0 -0 -1 -1
5 4 5 6 6 6 7 6 6 7 7 9 6 14 9 7 7 6 5 5 4 3 3 2 2 2 2 1 1 0 0 0 0 -0 0 0 1 2 1 0 -0 -0 -1 -1
6 6 6 6 6 5 6 5 6 6 7 7 7 12 10 7 8 7 6 5 4 3 3 3 2 2 1 1 1 0 0 0 -0 -0 0 1 1 1 0 0 -0 -0 -0 -1
5 4 5 5 5 5 5 6 6 6 7 10 8 9 14 10 8 7 6 5 4 4 3 2 2 1 1 1 1 1 1 1 0 -0 0 0 1 1 1 1 1 1 0 -0
6 6 4 4 6 5 5 7 10 11 10 11 8 12 14 8 6 6 6 5 4 4 3 3 2 2 2 1 1 1 1 1 0 0 0 0 0 1 1 1 1 1 1 0
8 9 6 4 5 6 6 7 10 12 12 11 7 12 10 6 5 5 4 4 4 4 3 3 3 2 2 2 1 1 1 1 1 0 1 0 0 1 1 0 1 1 1 0
8 8 5 5 4 5 7 8 6 8 8 10 13 10 7 6 6 5 5 5 4 4 4 3 3 2 2 2 2 1 1 1 1 1 1 1 0 0 0 -0 0 0 -0 0
6 9 6 5 4 5 6 5 9 12 14 12 12 11 11 9 8 6 6 5 4 4 3 3 3 2 2 2 2 1 1 1 1 0 0 1 1 0 0 0 0 0 0 0
5 6 8 5 6 10 8 7 8 8 9 13 14 16 8 8 7 6 5 5 4 4 3 3 2 2 2 1 1 2 2 3 2 2 1 1 0 0 0 0 0 0 -0 -0
5 6 8 8 5 5 5 7 9 10 14 14 11 14 6 6 6 5 5 4 4 3 3 2 2 2 2 2 2 1 1 2 2 1 1 1 1 1 1 0 0 -0 -0 -0
5 7 9 9 7 6 7 6 6 6 7 9 11 13 6 6 6 5 5 4 4 3 3 2 2 2 2 2 2 1 1 1 1 1 1 1 1 1 1 0 1 0 -0 0
4 6 8 13 12 10 10 8 7 7 9 9 10 10 8 7 6 5 5 4 4 3 3 3 2 2 2 1 1 1 1 1 1 1 1 1 1 1 1 0 0 0 0 0
5 8 7 8 8 9 8 8 8 8 8 9 8 8 7 7 6 5 4 4 4 4 3 3 3 2 2 1 1 1 1 0 0 1 1 1 0 0 0 0 -0 -0 -0 -0
5 8 7 9 7 7 8 7 7 7 7 7 7 8 6 5 5 5 4 4 4 4 3 3 2 2 2 2 1 1 1 1 0 1 1 1 0 0 0 0 0 0 0 0
6 7 9 10 8 8 10 8 7 7 7 7 8 7 5 6 5 5 4 4 4 4 3 3 2 2 2 1 1 1 1 0 1 1 1 1 1 1 1 0 0 0 0 0
6 7 8 10 9 14 8 6 6 7 6 6 6 6 5 5 5 4 3 4 4 3 3 3 2 2 1 1 1 1 1 1 1 1 1 1 0 1 1 1 1 1 1 1
4 6 9 11 11 9 8 7 7 7 7 5 6 5 5 5 4 5 3 3 3 2 2 2 2 1 1 1 0 1 1 1 1 2 1 1 0 1 1 1 1 0 1 1
5 5 8 9 12 13 8 6 4 5 9 5 5 5 5 5 7 6 3 2 2 2 2 2 1 1 1 1 1 1 1 2 2 2 1 1 1 1 1 1 1 1 0 1
8 8 9 9 10 9 6 5 4 10 10 5 5 5 5 6 5 3 2 2 2 2 2 1 1 1 2 2 1 2 2 2 1 1 1 1 1 1 1 1 0 1 1 1
8 9 9 8 10 11 5 5 8 6 4 4 4 4 4 4 3 3 3 2 2 2 2 1 2 2 1 2 2 2 3 2 1 1 1 1 0 1 1 1 1 1 1 1
9 7 9 8 9 5 4 5 3 3 4 4 4 4 3 4 3 3 3 2 3 2 2 1 2 2 2 2 2 3 2 2 2 2 2 1 1 1 1 1 1 2 1 2
6 5 7 7 6 5 4 4 3 3 4 3 3 3 3 4 3 3 3 4 3 2 2 2 2 3 3 2 2 2 3 3 3 3 3 2 1 1 1 1 1 1 2 2
6 5 6 7 6 5 4 4 3 3 3 3 3 4 4 4 4 5 5 3 2 2 2 2 2 3 3 3 3 2 3 3 4 4 4 3 1 1 1 1 1 1 1 1
4 5 7 7 5 5 5 3 3 3 4 3 4 4 3 4 5 5 5 2 2 2 2 2 2 3 3 4 4 3 3 4 4 5 5 4 2 2 1 2 2 3 5 5